BRISAT

Last updated on Sat Nov 15 2025 00:02:50 GMT+0000 (Coordinated Universal Time)

1 41591U 16039A 25318.44003390 -.00000194 00000+0 00000+0 0 9994 2 41591 0.0189 279.9174 0002069 310.4237 132.3658 1.00271174 34453
UTC large
Height (km)
Speed (km/s)
/
Latitude / Longitude
Inclination (degrees)
Orbital Period (minutes)
Azimuth
Elevation
Range (km)
Doppler Factor

Next 0 passes for location: London (51.5072 / 0.1276)

Sorry there are no passes over London.